Skip Page Navigation
NASA JPL Caltech
NASA Logo - Jet Propulsion Laboratory + View the NASA Portal
+ Center for Near-Earth Object Studies
JPL Home Earth Solar System Stars & Galaxies Technology
JPL Solar System Dynamics
BODIES ORBITS EPHEMERIDES TOOLS PHYSICAL DATA DISCOVERY FAQ SITE MAP
JPL Small-Body Database Browser
Search: [ help ]  
4401 Aditi (1985 TB)
Classification: Amor [NEO]          SPK-ID: 2004401
Ephemeris | Orbit Diagram | Orbital Elements | Mission Design | Physical Parameters | Discovery Circumstances | Close-Approach Data ]

[ show orbit diagram ]
Orbital Elements at Epoch 2459000.5 (2020-May-31.0) TDB
Reference: JPL 205 (heliocentric ecliptic J2000)
 Element Value Uncertainty (1-sigma)   Units 
e .5644002390075878 2.625e-08  
a 2.580681127479128 7.9336e-09 au
q 1.124144082327537 6.7975e-08 au
i 26.63802301661972 9.9775e-06 deg
node 22.88805212021094 9.216e-06 deg
peri 68.15070272946105 1.3152e-05 deg
M 113.4192280640748 4.328e-06 deg
tp 2458523.427775895687
(2019-Feb-08.92777590)
1.7247e-05 TDB
period 1514.258240062496
4.15
6.9828e-06
1.912e-08
d
yr
n .2377401624607585 1.0963e-09 deg/d
Q 4.03721817263072 1.2411e-08 au
  Orbit Determination Parameters
   # obs. used (total)      1026  
   data-arc span      12282 days (33.63 yr)  
   first obs. used      1985-10-14  
   last obs. used      2019-05-31  
   planetary ephem.      DE431  
   SB-pert. ephem.      SB431-N16  
   condition code      0  
   norm. resid. RMS      .46965  
   source      ORB  
   producer      Otto Matic  
   solution date      2020-Feb-04 05:39:19  

Additional Information
 Earth MOID = .331404 au 
 Jupiter MOID = 2.23652 au 
 T_jup = 3.056 
[ show covariance matrix ]

Ephemeris | Orbit Diagram | Orbital Elements | Mission Design | Physical Parameters | Discovery Circumstances | Close-Approach Data ]

Physical Parameter Table
Parameter Symbol Value Units Sigma Reference Notes
absolute magnitude H 16.0   n/a MPO337288  
diameter diameter 1.801 km 0.535 urn:nasa:pds:neowise_diameters_albedos::2.0[neos] (http://adsabs.harvard.edu/abs/2012ApJ...760L..12M)  
rotation period rot_per 6.670 h n/a LCDB (Rev. 2019-August); Warner et al., 2009 Published Reference List:
[Benishek, V. (2014) http://beoastrophot.awardspace.com/]
[Warner, B.D. (2015) Minor Planet Bull. 42, 41-53.]
[Warner, B.D. (2015) Minor Planet Bull. 42, 172-183.]
geometric albedo albedo 0.343   0.204 urn:nasa:pds:neowise_diameters_albedos::2.0[neos] (http://adsabs.harvard.edu/abs/2012ApJ...760L..12M)  

4401 Aditi (1985 TB)          Discovered 1985-Oct-14 by Shoemaker, C. S. at Palomar
Reference: DISCOVERY.DBLast Updated: 2003-08-29

[ show close-approach data ]
Ephemeris | Orbit Diagram | Orbital Elements | Mission Design | Physical Parameters | Discovery Circumstances | Close-Approach Data ]
ABOUT SSD CREDITS/AWARDS PRIVACY/COPYRIGHT GLOSSARY LINKS
FirstGov 2020-Aug-11 10:39 UT
(server date/time)  
NASA Home Page
Site Manager:   Ryan S. Park
Webmaster  Alan B. Chamberlin